[[{"header":{"parameterUnit":"m.s-1","parameterCategory":1,"la1":30.2991,"la2":30.254,"lo1":-89.0895,"lo2":-89.0444,"dy":0.0017,"dx":0.0017,"nx":28,"ny":28,"refTime":"2023-08-20T09:00:00:Z","depth":0,"parameterNumber":2,"parameterNumberName":"U-component_of_WINDS"},"data":[0,0,0,0,0,0,0,0,0,0,0,0,0,0,0,0,0,0,0,0,0,0,0,0,0,0,0,0,0,0,0,0,0,0,0,0,0,0,0,0,0,0,0,0,0,0,0,0,0,0,0,0,0,0,0,0,0,0,-3.17,-3.17,0,-3.1692,-3.1692,-3.1692,-3.1594,-3.1591,-3.1589,-3.1586,-3.1578,-3.158,-3.1582,0,0,0,0,0,0,0,0,0,0,0,0,0,-3.1629,-3.1631,-3.17,-3.17,-3.17,-3.1693,-3.1692,-3.1692,-3.1594,-3.1591,-3.1588,-3.1585,-3.1577,-3.158,-3.1582,0,0,0,0,0,0,0,0,0,0,0,0,0,-3.1645,-3.1631,-3.17,-3.165,-3.1645,-3.1693,-3.1692,-3.1692,-3.1595,-3.1591,-3.1587,-3.1584,-3.1577,-3.158,-3.1583,-3.1677,0,0,-3.1592,-3.1594,0,0,0,0,0,0,0,0,-3.1644,-3.1647,-3.1657,-3.1654,-3.1649,-3.164,-3.1664,-3.1687,-3.1596,-3.1614,-3.1586,-3.1582,-3.1602,-3.1603,-3.1609,-3.1677,-3.1676,-3.1593,-3.1594,-3.1596,-3.1597,0,0,0,0,0,0,0,-3.1643,-3.1647,-3.1697,-3.1658,-3.1652,-3.1628,-3.1626,-3.1668,-3.1629,-3.1612,-3.1605,-3.1605,-3.1599,-3.1607,-3.1608,-3.1676,-3.1592,-3.1595,-3.1597,-3.1598,-3.182,-3.1824,0,0,0,0,0,0,-3.1649,-3.1647,-3.1697,-3.1697,-3.1637,-3.1632,-3.163,-3.1647,-3.1628,-3.1622,-3.1609,-3.1601,-3.1603,-3.1605,-3.1608,-3.1716,-3.1596,-3.1599,-3.1601,-3.1816,-3.1821,-3.1825,0,0,0,0,0,0,-3.1648,-3.1654,-3.1697,-3.167,-3.1673,-3.1637,-3.1657,-3.1648,-3.1656,-3.1626,-3.1618,-3.1624,-3.16,-3.1603,-3.166,-3.1714,-3.16,-3.1603,-3.1811,-3.1817,-3.1823,-3.1934,0,0,0,0,0,0,-3.1646,-3.1654,-3.169,-3.1671,-3.1675,-3.1751,-3.166,-3.1651,-3.1662,-3.1652,-3.1638,-3.1632,-3.1597,-3.1656,-3.1664,-3.1717,-3.1606,-3.1806,-3.1814,-3.1821,-3.1925,-3.1943,-3.1958,0,0,0,0,0,-3.1644,-3.1721,-3.1692,-3.1699,-3.1719,-3.1754,-3.1756,-3.1715,-3.1667,-3.1702,-3.1682,-3.1632,-3.1708,-3.1663,-3.167,-3.1725,-3.1803,-3.1812,-3.182,-3.1918,-3.194,-3.1958,0,0,0,0,0,0,-3.1746,-3.1718,-3.1685,-3.1759,-3.176,-3.1737,-3.178,-3.1739,-3.1753,-3.1743,-3.1691,-3.1689,-3.1754,-3.1745,-3.1696,-3.1815,-3.1746,-3.1757,-3.1818,-3.1838,-3.1855,-3.1854,-3.1608,0,0,0,0,0,-3.1778,-3.1809,-3.1782,-3.185,-3.1852,-3.1817,-3.183,-3.1799,-3.1797,-3.1797,-3.1781,-3.1782,-3.1805,-3.1821,-3.1842,-3.1924,-3.192,-3.1966,-3.1982,-3.1996,-3.2005,-3.2048,-3.2068,-3.1855,-3.1855,-3.1854,0,0,-3.1842,-3.1831,-3.1853,-3.187,-3.1867,-3.19,-3.1817,-3.1856,-3.1879,-3.1802,-3.1855,-3.1844,-3.1841,-3.1911,-3.1942,-3.1906,-3.2064,-3.2008,-3.2019,-3.202,-3.2059,-3.208,-3.2098,-3.1861,-3.186,-3.1859,0,0,-3.1976,-3.1972,-3.2027,-3.2026,-3.2022,-3.1998,-3.2012,-3.1996,-3.1986,-3.2038,-3.1981,-3.2009,-3.2051,-3.2051,-3.2056,-3.2193,-3.2147,-3.2201,-3.2286,-3.2328,-3.2345,-3.236,-3.2407,-3.2425,-3.2211,-3.2211,-3.2211,0,-3.2057,-3.2104,-3.206,-3.2103,-3.2112,-3.2045,-3.21,-3.2101,-3.2105,-3.2112,-3.2073,-3.2124,-3.2118,-3.2187,-3.222,-3.2228,-3.2241,-3.2201,-3.2346,-3.2361,-3.2373,-3.2418,-3.2436,-3.2218,-3.2217,-3.2216,-3.2216,0,-3.2203,-3.2237,-3.2283,-3.2288,-3.2302,-3.2351,-3.2314,-3.2334,-3.2302,-3.2283,-3.2337,-3.2327,-3.2344,-3.2358,-3.2327,-3.2423,-3.2401,-3.2356,-3.2285,-3.2401,-3.2442,-3.2459,-3.2227,-3.2224,-3.2223,-3.2221,0,0,-3.2399,-3.2381,-3.2398,-3.2399,-3.2392,-3.2417,-3.2463,-3.248,-3.2498,-3.2503,-3.254,-3.2578,-3.2535,-3.2542,-3.251,-3.2548,-3.2655,-3.2497,-3.2496,-3.2525,-3.276,-3.2793,-3.2814,-3.2626,-3.2629,-3.2632,-3.2759,0,-3.2527,-3.2605,-3.2567,-3.2649,-3.268,-3.2617,-3.2658,-3.2657,-3.2641,-3.2664,-3.2646,-3.2673,-3.2616,-3.2619,-3.2653,-3.2635,-3.2701,-3.2625,-3.2659,-3.266,-3.2659,-3.2835,-3.287,-3.2991,-3.2775,-3.2778,-3.278,0,-3.2687,-3.2699,-3.2784,-3.2771,-3.2782,-3.2819,-3.2831,-3.2855,-3.2854,-3.2839,-3.2847,-3.2808,-3.2852,-3.2784,-3.2844,-3.2793,-3.2805,-3.2798,-3.2802,-3.2802,-3.2726,-3.2838,-3.3029,-3.3047,-3.2805,-3.2803,-3.2801,0,-3.282,-3.2858,-3.2913,-3.2917,-3.2903,-3.293,-3.2926,-3.2921,-3.2933,-3.2945,-3.2952,-3.2969,-3.2978,-3.2991,-3.2957,-3.2911,-3.3022,-3.2951,-3.301,-3.3011,-3.3034,-3.3033,-3.3228,-3.3045,-3.3045,-3.3045,-3.3044,0,-3.2965,-3.302,-3.2973,-3.3007,-3.3066,-3.3023,-3.3082,-3.3071,-3.3067,-3.3098,-3.3046,-3.3076,-3.3029,-3.3055,-3.3029,-3.3082,-3.3087,-3.3076,-3.3068,-3.3079,-3.308,-3.3085,-3.3075,-3.305,-3.3049,-3.3048,-3.3047,0,-3.3123,-3.3094,-3.315,-3.3133,-3.313,-3.3174,-3.3159,-3.319,-3.3171,-3.321,-3.3217,-3.3187,-3.3214,-3.3182,-3.3207,-3.3189,-3.3261,-3.3241,-3.3261,-3.3255,-3.3315,-3.331,-3.3518,-3.3543,-3.3347,-3.3349,-3.335,0,-3.3216,-3.3257,-3.3245,-3.3262,-3.326,-3.3289,-3.3301,-3.3261,-3.3277,-3.3279,-3.3309,-3.3333,-3.3348,-3.3395,-3.3375,-3.3394,-3.3373,-3.3445,-3.3375,-3.3386,-3.3372,-3.337,-3.3373,-3.3459,-3.3461,-3.3463,-3.3465,0,-3.3386,-3.337,-3.3391,-3.3407,-3.3424,-3.3435,-3.3441,-3.3459,-3.3417,-3.3437,-3.3464,-3.3477,-3.3503,-3.3526,-3.354,-3.3534,-3.3493,-3.3487,-3.3502,-3.3513,-3.3522,-3.3517,-3.3298,-3.3482,-3.348,-3.3479,-3.3478,-3.3477,-3.3513,-3.3546,-3.3543,-3.3567,-3.3569,-3.3577,-3.3605,-3.3589,-3.3612,-3.3629,-3.3605,-3.3639,-3.3637,-3.3651,-3.3651,-3.3677,-3.3646,-3.3667,-3.3672,-3.3677,-3.3686,-3.352,-3.3679,-3.3679,-3.3678,-3.3678,-3.3677,0,-3.3678,-3.3674,-3.3697,-3.3709,-3.3729,-3.3689,-3.3695,-3.3714,-3.3744,-3.3747,-3.3764,-3.3796,-3.3818,-3.3801,-3.382,-3.3844,-3.3826,-3.3851,-3.3847,-3.3847,-3.3713,-3.3698,-3.3865,-3.3865,-3.3865,-3.3865,-3.3865,-3.3865,-3.3767,-3.382,-3.3804,-3.3857,-3.3852,-3.3885,-3.3892,-3.3899,-3.39,-3.3938,-3.3957,-3.3946,-3.394,-3.3958,-3.3978,-3.3972,-3.3981,-3.4012,-3.4,-3.3875,-3.3856,-3.3839,-3.3824,-3.4015,-3.4015,-3.4131,-3.4132,-3.4133]},{"header":{"parameterUnit":"m.s-1","parameterCategory":1,"la1":30.2991,"la2":30.254,"lo1":-89.0895,"lo2":-89.0444,"dy":0.0017,"dx":0.0017,"nx":28,"ny":28,"refTime":"2023-08-20T09:00:00:Z","depth":0,"parameterNumber":3,"parameterNumberName":"V-component_of_WINDS"},"data":[0,0,0,0,0,0,0,0,0,0,0,0,0,0,0,0,0,0,0,0,0,0,0,0,0,0,0,0,0,0,0,0,0,0,0,0,0,0,0,0,0,0,0,0,0,0,0,0,0,0,0,0,0,0,0,0,0,0,-0.3961,-0.3962,0,-0.4054,-0.4055,-0.4056,-0.4121,-0.4122,-0.4122,-0.4123,-0.4219,-0.4221,-0.4223,0,0,0,0,0,0,0,0,0,0,0,0,0,-0.3839,-0.3841,-0.396,-0.3962,-0.3963,-0.4054,-0.4055,-0.4056,-0.4121,-0.4122,-0.4122,-0.4123,-0.4218,-0.422,-0.4223,0,0,0,0,0,0,0,0,0,0,0,0,0,-0.3908,-0.3841,-0.396,-0.4006,-0.4011,-0.4053,-0.4055,-0.4056,-0.4121,-0.4122,-0.4123,-0.4123,-0.4217,-0.422,-0.4223,-0.4227,0,0,-0.4233,-0.4234,0,0,0,0,0,0,0,0,-0.3904,-0.3912,-0.3998,-0.4003,-0.4009,-0.4077,-0.4047,-0.4114,-0.4121,-0.4079,-0.4123,-0.4124,-0.4171,-0.4178,-0.4194,-0.4232,-0.4236,-0.4233,-0.4235,-0.4236,-0.4237,0,0,0,0,0,0,0,-0.3899,-0.3908,-0.3997,-0.3999,-0.4006,-0.4022,-0.4033,-0.406,-0.412,-0.4083,-0.4088,-0.4098,-0.4174,-0.419,-0.4196,-0.4237,-0.4233,-0.4236,-0.4238,-0.4239,-0.4282,-0.4282,0,0,0,0,0,0,-0.3887,-0.3904,-0.3994,-0.4,-0.3957,-0.4024,-0.4036,-0.4054,-0.412,-0.413,-0.4097,-0.4101,-0.4185,-0.4193,-0.42,-0.4208,-0.4236,-0.4239,-0.4241,-0.4283,-0.4282,-0.4281,0,0,0,0,0,0,-0.3884,-0.3894,-0.3991,-0.3954,-0.3967,-0.4025,-0.4045,-0.4056,-0.4072,-0.413,-0.4141,-0.4103,-0.4186,-0.4196,-0.422,-0.4213,-0.4241,-0.4243,-0.4284,-0.4283,-0.4282,-0.4225,0,0,0,0,0,0,-0.388,-0.3893,-0.3895,-0.3953,-0.3969,-0.4009,-0.4045,-0.4057,-0.4077,-0.4083,-0.4139,-0.4149,-0.4187,-0.4215,-0.4223,-0.4217,-0.4246,-0.4285,-0.4283,-0.4282,-0.4228,-0.4222,-0.4217,0,0,0,0,0,-0.3876,-0.3876,-0.3895,-0.3905,-0.3973,-0.4008,-0.4017,-0.4061,-0.4077,-0.4079,-0.4116,-0.4147,-0.4212,-0.4217,-0.4226,-0.4222,-0.4285,-0.4284,-0.4282,-0.423,-0.4223,-0.4218,0,0,0,0,0,0,-0.3816,-0.3884,-0.3906,-0.3925,-0.396,-0.4019,-0.4024,-0.4052,-0.4084,-0.4088,-0.4141,-0.4153,-0.4171,-0.4199,-0.4203,-0.4228,-0.4252,-0.4253,-0.421,-0.4204,-0.4198,-0.4191,-0.4249,0,0,0,0,0,-0.3805,-0.3828,-0.3887,-0.3898,-0.3914,-0.3966,-0.3983,-0.4013,-0.4052,-0.4067,-0.4106,-0.4143,-0.4171,-0.4189,-0.4219,-0.4232,-0.4245,-0.4234,-0.4228,-0.4224,-0.4223,-0.4232,-0.4227,-0.4276,-0.4276,-0.4276,0,0,-0.3783,-0.3823,-0.3834,-0.3887,-0.3917,-0.394,-0.3978,-0.4,-0.4018,-0.4071,-0.4096,-0.4125,-0.417,-0.4188,-0.4198,-0.4212,-0.4213,-0.4222,-0.4218,-0.422,-0.4229,-0.4225,-0.4221,-0.4275,-0.4275,-0.4275,0,0,-0.3753,-0.3786,-0.3799,-0.3828,-0.3874,-0.3909,-0.3911,-0.3966,-0.3987,-0.4013,-0.4053,-0.4074,-0.4123,-0.4152,-0.4173,-0.4153,-0.4183,-0.4162,-0.4134,-0.4142,-0.4138,-0.4135,-0.4127,-0.4124,-0.4161,-0.4161,-0.4161,0,-0.372,-0.3756,-0.3801,-0.3821,-0.3843,-0.3891,-0.3904,-0.3931,-0.3984,-0.3998,-0.4012,-0.4073,-0.4106,-0.4132,-0.4127,-0.4142,-0.4147,-0.4156,-0.4135,-0.4132,-0.413,-0.4123,-0.412,-0.4158,-0.4158,-0.4159,-0.4159,0,-0.3712,-0.3736,-0.374,-0.3789,-0.3812,-0.3828,-0.3876,-0.3893,-0.3921,-0.3953,-0.3978,-0.4019,-0.4058,-0.4066,-0.4094,-0.4095,-0.4102,-0.4125,-0.415,-0.4121,-0.4116,-0.4114,-0.4154,-0.4155,-0.4156,-0.4156,0,0,-0.3648,-0.3722,-0.3723,-0.3745,-0.3799,-0.3819,-0.3836,-0.3873,-0.3886,-0.3921,-0.3937,-0.3976,-0.3997,-0.4021,-0.4053,-0.4059,-0.404,-0.4081,-0.4083,-0.4072,-0.4043,-0.4025,-0.4022,-0.406,-0.4059,-0.4059,-0.4039,0,-0.3627,-0.3662,-0.3703,-0.3723,-0.3746,-0.3791,-0.3807,-0.3841,-0.3872,-0.3895,-0.3929,-0.3955,-0.3981,-0.3996,-0.4004,-0.404,-0.4035,-0.4043,-0.4075,-0.4075,-0.4062,-0.4019,-0.4001,-0.398,-0.4037,-0.4037,-0.4037,0,-0.3607,-0.3639,-0.3661,-0.3712,-0.3722,-0.3736,-0.3772,-0.3794,-0.3834,-0.3855,-0.3881,-0.3915,-0.3936,-0.3958,-0.3987,-0.3991,-0.4006,-0.4026,-0.4026,-0.4031,-0.4054,-0.4022,-0.3975,-0.3971,-0.4034,-0.4034,-0.4035,0,-0.3558,-0.3606,-0.3625,-0.3643,-0.3703,-0.3711,-0.3736,-0.3777,-0.3796,-0.3828,-0.3841,-0.3875,-0.3893,-0.3919,-0.396,-0.3973,-0.3984,-0.401,-0.4003,-0.4002,-0.4003,-0.4003,-0.3957,-0.4013,-0.4013,-0.4014,-0.4014,0,-0.353,-0.3541,-0.3604,-0.3616,-0.363,-0.3677,-0.369,-0.3719,-0.3754,-0.3773,-0.3814,-0.3831,-0.3885,-0.3907,-0.394,-0.3958,-0.3967,-0.3984,-0.3993,-0.3981,-0.3978,-0.3991,-0.3994,-0.4013,-0.4013,-0.4013,-0.4013,0,-0.3477,-0.352,-0.3544,-0.3598,-0.3612,-0.3619,-0.3666,-0.3679,-0.3711,-0.3734,-0.3742,-0.3792,-0.3821,-0.3865,-0.3907,-0.3928,-0.3941,-0.3956,-0.3928,-0.3933,-0.3922,-0.3923,-0.3884,-0.3881,-0.3939,-0.3938,-0.3938,0,-0.3456,-0.3466,-0.3521,-0.3536,-0.3559,-0.3583,-0.3603,-0.3649,-0.3668,-0.3713,-0.372,-0.3752,-0.3779,-0.3822,-0.3863,-0.3895,-0.391,-0.3894,-0.3915,-0.3902,-0.3909,-0.3908,-0.3909,-0.3889,-0.3888,-0.3888,-0.3887,0,-0.3414,-0.3435,-0.3461,-0.3494,-0.3516,-0.3545,-0.3576,-0.3585,-0.3638,-0.3657,-0.3686,-0.3708,-0.375,-0.378,-0.3817,-0.3843,-0.3874,-0.388,-0.388,-0.3867,-0.385,-0.3859,-0.3914,-0.3881,-0.3881,-0.3882,-0.3882,-0.3882,-0.3377,-0.3388,-0.3427,-0.3455,-0.3483,-0.351,-0.3525,-0.3558,-0.3584,-0.3621,-0.3647,-0.3674,-0.3713,-0.3766,-0.379,-0.3812,-0.3825,-0.3825,-0.3825,-0.3824,-0.3819,-0.3847,-0.3819,-0.3819,-0.3819,-0.382,-0.382,0,-0.3337,-0.3364,-0.3389,-0.343,-0.3452,-0.3478,-0.3513,-0.353,-0.3553,-0.3586,-0.3612,-0.3645,-0.3675,-0.3717,-0.375,-0.3759,-0.3774,-0.3766,-0.3766,-0.3771,-0.3806,-0.3803,-0.3753,-0.3753,-0.3753,-0.3753,-0.3753,-0.3753,-0.3318,-0.3337,-0.3362,-0.3395,-0.3423,-0.3449,-0.3467,-0.3492,-0.3519,-0.3554,-0.3578,-0.3605,-0.3642,-0.3677,-0.3705,-0.3717,-0.3727,-0.3715,-0.3731,-0.3762,-0.3769,-0.3774,-0.3771,-0.3717,-0.3717,-0.3694,-0.3694,-0.3693]}]]